Weather History for Lebanon, NH

Change the Weather History Date:

Tuesday, October 9, 2012

  Actual Average Record
Temperature  
Mean Temperature 47 °F -  
Max Temperature 55 °F 60 °F 82 °F (2011)
Min Temperature 39 °F 39 °F 21 °F (2001)
Degree Days  
Heating Degree Days 18    
Moisture  
Dew Point 40 °F    
Average Humidity 81    
Maximum Humidity 100    
Minimum Humidity 62    
Precipitation  
Precipitation 0.00 in - - ()
Sea Level Pressure  
Sea Level Pressure 30.26 in    
Wind  
Wind Speed 1 mph (NE)    
Max Wind Speed 5 mph    
Max Gust Speed -    
Visibility 7 miles    
Events Fog    
Averages and records for this station are not official NWS values.
T = Trace of Precipitation, MM = Missing Value Source: NWS Daily Summary

Daily Weather History Graph

Daily Weather History Graph

Search for Another Location

Airport:

Trip Planner

Search our weather history database for the weather conditions in past years. The results will help you decide how hot, cold, wet, or windy it might be!

Date:

Astronomy

Oct. 09, 2012 Rise Set
Actual Time 6:56 AM EDT 6:15 PM EDT
Civil Twilight 6:27 AM EDT 6:43 PM EDT
Nautical Twilight 5:54 AM EDT 7:17 PM EDT
Astronomical Twilight 5:21 AM EDT 7:50 PM EDT
Moon 12:19 AM EDT (10/9) 2:50 PM EDT (10/9)
Length of Visible Light 12h 15m
Length of Day
11h 18m
Last Quarter, 37% of the Moon is Illuminated
Oct 9
Last Quarter
Oct 15
New
Oct 21
First Quarter
Oct 29
Full
Nov 6
Last Quarter

Hourly Weather History & Observations

Time (EDT) Temp. Windchill Dew Point Humidity Pressure Visibility Wind Dir Wind Speed Gust Speed Precip Events Conditions
12:35 AM 39.2 °F - 37.4 °F 93% 30.30 in 10.0 mi Calm Calm - N/A   Scattered Clouds
12:48 AM 39.2 °F - 37.4 °F 93% 30.29 in 10.0 mi Calm Calm - N/A   Mostly Cloudy
12:53 AM 39.0 °F - 37.0 °F 93% 30.30 in 10.0 mi Calm Calm - N/A   Mostly Cloudy
1:53 AM 39.0 °F - 36.0 °F 89% 30.32 in 10.0 mi Calm Calm - N/A   Overcast
2:53 AM 39.9 °F - 37.0 °F 89% 30.30 in 2.5 mi Calm Calm - N/A   Overcast
3:07 AM 39.2 °F - 37.4 °F 93% 30.29 in 7.0 mi Calm Calm - N/A   Overcast
3:48 AM 39.2 °F 37.0 °F 37.4 °F 93% 30.29 in 1.8 mi NE 3.5 mph - N/A   Overcast
4:34 AM 39.2 °F 37.0 °F 37.4 °F 93% 30.31 in 0.8 mi NE 3.5 mph - N/A   Overcast
4:41 AM 39.2 °F 37.0 °F 37.4 °F 93% 30.31 in 0.5 mi NE 3.5 mph - N/A Fog Fog
4:53 AM 39.0 °F 35.7 °F 37.0 °F 93% 30.32 in 0.5 mi ENE 4.6 mph - N/A Fog Fog
5:53 AM 39.0 °F 36.8 °F 37.0 °F 93% 30.32 in 0.5 mi ENE 3.5 mph - N/A Fog Fog
6:53 AM 39.0 °F - 37.9 °F 96% 30.32 in 0.5 mi Calm Calm - N/A Fog Fog
7:21 AM 39.2 °F - 37.4 °F 93% 30.31 in 0.2 mi Calm Calm - N/A Fog Fog
7:53 AM 39.0 °F 36.8 °F 37.0 °F 93% 30.32 in 0.2 mi North 3.5 mph - N/A Fog Fog
8:41 AM 39.2 °F 37.0 °F 37.4 °F 93% 30.30 in 0.5 mi North 3.5 mph - N/A Fog Fog
8:53 AM 39.9 °F - 37.9 °F 93% 30.32 in 0.5 mi Calm Calm - N/A Fog Fog
9:01 AM 39.2 °F - 37.4 °F 93% 30.31 in 0.8 mi Calm Calm - N/A   Overcast
9:13 AM 39.2 °F - 39.2 °F 100% 30.31 in 1.5 mi Calm Calm - N/A   Overcast
9:22 AM 39.2 °F - 37.4 °F 93% 30.31 in 3.0 mi Calm Calm - N/A   Overcast
9:53 AM 41.0 °F - 37.9 °F 89% 30.32 in 8.0 mi Calm Calm - N/A   Overcast
10:13 AM 42.8 °F - 39.2 °F 87% 30.30 in 10.0 mi Calm Calm - N/A   Scattered Clouds
10:53 AM 46.9 °F - 39.9 °F 77% 30.31 in 10.0 mi Calm Calm - N/A   Scattered Clouds
11:00 AM 46.4 °F - 39.2 °F 76% 30.30 in 10.0 mi Calm Calm - N/A   Mostly Cloudy
11:37 AM 50.0 °F - 41.0 °F 71% 30.28 in 10.0 mi Calm Calm - N/A   Overcast
11:49 AM 50.0 °F - 41.0 °F 71% 30.28 in 10.0 mi Calm Calm - N/A   Overcast
11:53 AM 50.0 °F - 41.0 °F 71% 30.29 in 10.0 mi Calm Calm - N/A   Overcast
12:21 PM 53.6 °F - 42.8 °F 67% 30.26 in 10.0 mi Calm Calm - N/A   Overcast
12:53 PM 53.1 °F - 42.1 °F 66% 30.25 in 10.0 mi Calm Calm - N/A   Overcast
1:15 PM 53.6 °F - 42.8 °F 67% 30.24 in 10.0 mi Calm Calm - N/A   Overcast
1:24 PM 53.6 °F - 42.8 °F 67% 30.23 in 10.0 mi Calm Calm - N/A   Overcast
1:53 PM 54.0 °F - 43.0 °F 66% 30.22 in 10.0 mi Calm Calm - N/A   Overcast
2:45 PM 55.4 °F - 42.8 °F 63% 30.20 in 10.0 mi SE 4.6 mph - N/A   Overcast
2:53 PM 55.0 °F - 43.0 °F 64% 30.21 in 10.0 mi Calm Calm - N/A   Overcast
3:53 PM 55.0 °F - 43.0 °F 64% 30.19 in 10.0 mi Calm Calm - N/A   Overcast
4:53 PM 55.0 °F - 42.1 °F 62% 30.18 in 10.0 mi Calm Calm - N/A   Overcast
5:53 PM 52.0 °F - 46.0 °F 80% 30.19 in 10.0 mi Calm Calm - N/A   Overcast
6:53 PM 53.1 °F - 43.0 °F 69% 30.18 in 10.0 mi Calm Calm - N/A   Overcast
7:53 PM 51.1 °F - 46.0 °F 83% 30.18 in 10.0 mi Calm Calm - N/A   Overcast
8:28 PM 51.8 °F - 44.6 °F 76% 30.16 in 10.0 mi Calm Calm - N/A   Overcast
8:53 PM 53.1 °F - 44.1 °F 71% 30.17 in 10.0 mi Calm Calm - N/A   Overcast
9:53 PM 51.1 °F - 44.1 °F 77% 30.17 in 10.0 mi Calm Calm - N/A   Overcast
10:34 PM 51.8 °F - 44.6 °F 76% 30.15 in 10.0 mi SSE 3.5 mph - N/A   Overcast
10:53 PM 51.1 °F - 44.1 °F 77% 30.15 in 10.0 mi Calm Calm - N/A   Overcast
11:30 PM 50.0 °F - 42.8 °F 76% 30.14 in 10.0 mi Calm Calm - N/A   Overcast
11:53 PM 50.0 °F - 43.0 °F 77% 30.14 in 10.0 mi Variable 3.5 mph - N/A   Overcast